Location: Carrières
(48.9495°N, 2.0407°E)
Time: 03:29:12
(UTC+00:00)

Transit 2A - Pass Details

Date: 26 April 2024
Orbit: 594 x 957 km, 66.7° (Epoch: 19 May)

Event Time Altitude Azimuth Distance (km) Brightness Sun altitude
Rises 15:07:14 0° 309° (NW) 3,341 9.6 36.5°
Reaches altitude 10° 15:10:44 10° 286° (WNW) 2,480 9.5 36.0°
Maximum altitude 15:13:42 15° 255° (WSW) 2,225 10.0 35.5°
Drops below altitude 10° 15:16:47 10° 224° (SW) 2,581 9.8 35.1°
Sets 15:20:34 0° 202° (SSW) 3,570 10.0 34.5°
